Regional Weather Roundup
Issued by NWS

Home | Current Version | Previous Version | Text Only | Print | Product List | Glossary Off
Versions: 1 2 3 4 5 6 7 8 9 10 11 12 13 14 15 16 17 18 19 20 21 22 23 24 25 26 27 28 29 30 31 32 33 34 35 36 37 38 39 40 41 42 43 44 45 46 47 48 49 50

000
ASUS43 KOAX 230702
RWRNE

WEATHER ROUNDUP FOR NEBRASKA
NATIONAL WEATHER SERVICE OMAHA NE
100 AM CST MON JAN 23 2017

NOTES: SATELLITE DATA IS BEING USED TO AUGMENT CLOUD COVER ABOVE
       12000 FEET.
       "FAIR" INDICATES FEW OR NO CLOUDS BELOW 12,000 FEET WITH NO
       SIGNIFICANT WEATHER AND/OR OBSTRUCTIONS TO VISIBILITY.

  * THESE STATIONS DO NOT REPORT WEATHER SUCH AS RAIN...SNOW OR FOG.

NEZ001>004-019>022-054>056-230800-
NEBRASKA PANHANDLE

CITY           SKY/WX    TMP DP  RH WIND       PRES   REMARKS
SCOTTSBLUFF    PTCLDY    28  21  75 CALM      29.79F
ALLIANCE       CLOUDY    18  14  84 S8        29.79F WCI   8
CHADRON        CLOUDY    19  17  92 W5        29.78F WCI  12
SIDNEY         CLOUDY    27  19  72 S6        29.79F WCI  20
$$

NEZ057>060-069>072-079>082-230800-
SOUTHWEST NEBRASKA

CITY           SKY/WX    TMP DP  RH WIND       PRES   REMARKS
NORTH PLATTE   CLEAR     22  18  85 CALM      29.85F
IMPERIAL       PTCLDY    30  24  78 SW5       29.85F WCI  25
LEXINGTON      CLEAR     25  22  90 CALM      29.88F
MCCOOK         CLOUDY    24  22  91 W6        29.87F WCI  17
OGALLALA       CLOUDY    24  22  91 W5        29.85F WCI  18
$$

NEZ005>010-023>029-035>040-094-230800-
NORTH CENTRAL NEBRASKA

CITY           SKY/WX    TMP DP  RH WIND       PRES   REMARKS
VALENTINE      CLEAR     19  15  84 CALM      29.83F
AINSWORTH      CLEAR     19  18  97 CALM      29.83F
BROKEN BOW     CLEAR     28  25  88 CALM      29.86F
O`NEILL        FOG       26  26  99 N5        29.88F VSB 3/4 WCI  21
ORD            CLEAR     22  19  89 SW3       29.87F
THEDFORD       CLOUDY    24  21  88 CALM      29.84F
$$

NEZ041-046>049-061>064-073>077-083>087-230800-
SOUTH CENTRAL NEBRASKA

CITY           SKY/WX    TMP DP  RH WIND       PRES   REMARKS
GRAND ISLAND   CLEAR     26  25  96 CALM      29.89F
AURORA         CLEAR     27  26  94 NW5       29.89S WCI  22
HASTINGS       CLEAR     31  25  78 W5        29.90F WCI  26
HEBRON         CLEAR     26  26 100 CALM      29.90S
HOLDREGE       CLEAR     28  25  91 CALM      29.88F
KEARNEY *      CLEAR     30  25  80 CALM      29.89F
YORK           CLEAR     28  28 100 CALM      29.90S
$$

NEZ011>018-030>034-042>045-230800-
NORTHEAST NEBRASKA

CITY           SKY/WX    TMP DP  RH WIND       PRES   REMARKS
NORFOLK        CLOUDY    29  25  85 NW8       29.89F WCI  21
ALBION         CLEAR     24  20  85 CALM      29.88F
BLAIR          CLOUDY    31  28  90 NW15G22   29.89R WCI  20
FREMONT        CLOUDY    31  30  97 NW12      29.91S WCI  21
TEKAMAH        CLOUDY    32  28  85 NW9       29.91R WCI  24
WAYNE          CLOUDY    32  29  88 NW10      29.89F WCI  23
$$

NEZ050>053-065>068-078-088>093-230800-
SOUTHEAST NEBRASKA

CITY           SKY/WX    TMP DP  RH WIND       PRES   REMARKS
LINCOLN        CLEAR     22  21  96 N6        29.92S WCI  14
OMAHA EPPLEY   CLOUDY    31  26  82 NW16      29.91R WCI  20
BEATRICE       CLEAR     28  27  99 CALM      29.90F FOG
FALLS CITY     CLEAR     28  26  92 W6        29.91R WCI  22
NEBRASKA CITY  CLEAR     30  30 100 CALM      29.90R
PLATTSMOUTH    PTCLDY    30  28  90 NW8       29.90R FOG     WCI  22
$$

NEZ044-045-051>053-067-230800-
OMAHA AREA

CITY           SKY/WX    TMP DP  RH WIND       PRES   REMARKS
OMAHA EPPLEY   CLOUDY    31  26  82 NW16      29.91R WCI  20
BLAIR          CLOUDY    31  28  90 NW15G22   29.89R WCI  20
FREMONT        CLOUDY    31  30  97 NW12      29.91S WCI  21
MILLARD        CLOUDY    32  30  93 NW7       29.92R WCI  26
OFFUTT AFB     CLOUDY    31  31 100 N7        29.91R WCI  24
PLATTSMOUTH    PTCLDY    30  28  90 NW8       29.90R FOG     WCI  22
WAHOO          FAIR      29  27  94 N5        29.91S WCI  24
$$




USA.gov is the U.S. government's official web portal to all federal, state and local government web resources and services.